sat.trackr.live / text

‹ back to catalog

FLTSATCOM 8 (USA 46)

NORAD 20253 · 1989-077A

PAYLOAD ACTIVE UNKNOWN

§ Identity

Operator
Country
US
Launch date
1989-09-25
Launch site
AFETR
Launch vehicle
Mass (kg)
RCS (m²)
32.54

Purposes: comms

External: N2YO · Heavens-Above · Gunter

§ Orbital elements

Epoch: 2026-05-24T23:12:23.330016Z

Period
1,436.18 min
Inclination
12.4281°
Eccentricity
0.0005996
Mean motion
1.00266056 rev/d
Perigee alt
35,762.9 km
Apogee alt
35,813.5 km
Semi-major
42,166.3 km
B*
0.0000e+0
RAAN
351.3052°
Arg perigee
30.1719°
Mean anomaly
334.7907°
Rev number
26,033

§ Raw data

FLTSATCOM 8 (USA 46)1 20253U 89077A   26144.96693669 -.00000377  00000+0  00000+0 0  99902 20253  12.4281 351.3052 0005996  30.1719 334.7907  1.00266056260334

JSON: /api/v1/satellites/20253 · /tle

For live sub-satellite position, see the globe view (requires WebGL).

§ Visibility from observer

Set your observer location to see the next 7 days of passes ≥ 10°. The values pass through the URL so the page stays shareable.

No JS? Fill the form by hand. The geolocation button needs JavaScript.